TimeEDT,TemperatureF,Dew PointF,Humidity,Sea Level PressureIn,VisibilityMPH,Wind Direction,Wind SpeedMPH,Gust SpeedMPH,PrecipitationIn,Events,Conditions,WindDirDegrees,DateUTC
12:15 AM,63.7,57.2,79,30.12,10.0,Calm,Calm,-,N/A,,Overcast,0,2013-09-27 04:15:00
12:35 AM,63.7,57.0,79,30.12,10.0,Calm,Calm,-,N/A,,Overcast,0,2013-09-27 04:35:00
12:55 AM,63.5,57.2,80,30.13,10.0,Calm,Calm,-,N/A,,Overcast,0,2013-09-27 04:55:00
1:15 AM,63.3,55.2,75,30.13,10.0,Calm,Calm,-,N/A,,Overcast,0,2013-09-27 05:15:00
1:35 AM,62.8,52.5,69,30.14,10.0,North,3.5,-,N/A,,Overcast,10,2013-09-27 05:35:00
1:55 AM,61.5,51.1,69,30.14,10.0,North,3.5,-,N/A,,Scattered Clouds,10,2013-09-27 05:55:00
2:15 AM,60.3,50.5,70,30.14,10.0,North,4.6,-,N/A,,Scattered Clouds,10,2013-09-27 06:15:00
2:35 AM,59.4,50.4,72,30.15,10.0,Calm,Calm,-,N/A,,Scattered Clouds,0,2013-09-27 06:35:00
2:55 AM,59.0,50.4,73,30.15,10.0,Calm,Calm,-,N/A,,Clear,0,2013-09-27 06:55:00
3:15 AM,58.1,50.4,75,30.15,10.0,NW,3.5,-,N/A,,Mostly Cloudy,310,2013-09-27 07:15:00
3:35 AM,58.1,50.5,76,30.15,10.0,North,3.5,-,N/A,,Mostly Cloudy,10,2013-09-27 07:35:00
3:55 AM,57.7,50.7,77,30.15,10.0,Calm,Calm,-,N/A,,Scattered Clouds,0,2013-09-27 07:55:00
4:15 AM,57.6,50.9,78,30.16,10.0,North,3.5,-,N/A,,Clear,10,2013-09-27 08:15:00
4:35 AM,57.4,50.9,79,30.16,10.0,NNE,4.6,-,N/A,,Clear,20,2013-09-27 08:35:00
4:55 AM,57.2,50.7,79,30.17,10.0,NE,3.5,-,N/A,,Clear,40,2013-09-27 08:55:00
5:15 AM,57.2,50.5,78,30.17,10.0,NNE,4.6,-,N/A,,Clear,20,2013-09-27 09:15:00
5:35 AM,57.2,50.5,78,30.18,10.0,NNE,3.5,-,N/A,,Clear,20,2013-09-27 09:35:00
5:55 AM,56.8,50.2,78,30.18,10.0,NNE,4.6,-,N/A,,Clear,20,2013-09-27 09:55:00
6:15 AM,56.7,50.4,79,30.19,10.0,North,4.6,-,N/A,,Clear,360,2013-09-27 10:15:00
6:35 AM,57.2,50.5,78,30.19,10.0,North,3.5,-,N/A,,Mostly Cloudy,10,2013-09-27 10:35:00
6:55 AM,58.1,50.5,76,30.20,10.0,NNE,4.6,-,N/A,,Overcast,20,2013-09-27 10:55:00
7:15 AM,58.3,50.4,75,30.21,10.0,NNE,3.5,-,N/A,,Overcast,30,2013-09-27 11:15:00
7:35 AM,58.3,50.2,74,30.21,10.0,NNE,3.5,-,N/A,,Overcast,20,2013-09-27 11:35:00
7:55 AM,58.6,50.4,74,30.22,10.0,NNE,6.9,-,N/A,,Overcast,20,2013-09-27 11:55:00
8:15 AM,59.2,50.2,72,30.22,10.0,NE,5.8,-,N/A,,Overcast,40,2013-09-27 12:15:00
8:35 AM,59.7,50.4,71,30.23,10.0,NE,5.8,-,N/A,,Overcast,40,2013-09-27 12:35:00
8:55 AM,60.8,50.2,68,30.24,10.0,NNE,5.8,-,N/A,,Overcast,30,2013-09-27 12:55:00
9:15 AM,60.8,50.4,68,30.24,10.0,NE,8.1,-,N/A,,Mostly Cloudy,50,2013-09-27 13:15:00
9:35 AM,61.9,50.7,67,30.24,10.0,NE,6.9,-,N/A,,Mostly Cloudy,50,2013-09-27 13:35:00
9:55 AM,62.8,50.5,64,30.24,10.0,North,5.8,-,N/A,,Scattered Clouds,10,2013-09-27 13:55:00
10:15 AM,64.6,50.9,61,30.24,10.0,ENE,5.8,-,N/A,,Scattered Clouds,70,2013-09-27 14:15:00
10:35 AM,65.5,51.1,60,30.24,10.0,NNE,6.9,-,N/A,,Clear,30,2013-09-27 14:35:00
10:55 AM,66.2,50.7,57,30.24,10.0,NNE,6.9,-,N/A,,Clear,20,2013-09-27 14:55:00
11:15 AM,67.8,50.4,54,30.24,10.0,ENE,5.8,-,N/A,,Clear,60,2013-09-27 15:15:00
11:35 AM,68.2,50.2,53,30.24,10.0,NE,4.6,-,N/A,,Scattered Clouds,50,2013-09-27 15:35:00
11:55 AM,66.9,50.7,56,30.24,10.0,North,3.5,-,N/A,,Mostly Cloudy,360,2013-09-27 15:55:00
12:15 PM,68.9,50.0,51,30.24,10.0,ENE,5.8,-,N/A,,Mostly Cloudy,60,2013-09-27 16:15:00
12:35 PM,70.9,49.1,46,30.23,10.0,ESE,6.9,-,N/A,,Mostly Cloudy,110,2013-09-27 16:35:00
12:55 PM,70.5,49.5,47,30.23,10.0,ESE,6.9,-,N/A,,Overcast,110,2013-09-27 16:55:00
1:15 PM,70.5,49.1,47,30.23,10.0,ESE,8.1,-,N/A,,Overcast,120,2013-09-27 17:15:00
1:35 PM,69.3,49.1,49,30.22,10.0,East,9.2,-,N/A,,Overcast,100,2013-09-27 17:35:00
1:55 PM,68.9,49.3,50,30.22,10.0,ESE,8.1,-,N/A,,Overcast,110,2013-09-27 17:55:00
2:15 PM,68.7,50.4,52,30.22,10.0,East,8.1,-,N/A,,Overcast,100,2013-09-27 18:15:00
2:35 PM,68.2,50.4,53,30.21,10.0,ESE,8.1,-,N/A,,Overcast,120,2013-09-27 18:35:00
2:55 PM,68.5,49.6,51,30.21,10.0,East,6.9,-,N/A,,Overcast,100,2013-09-27 18:55:00
3:15 PM,68.9,48.9,49,30.21,10.0,East,6.9,-,N/A,,Overcast,90,2013-09-27 19:15:00
3:35 PM,68.9,48.9,49,30.21,10.0,East,6.9,-,N/A,,Overcast,100,2013-09-27 19:35:00
3:55 PM,67.5,52.3,58,30.21,10.0,ESE,3.5,-,N/A,,Overcast,120,2013-09-27 19:55:00
4:15 PM,68.0,51.8,56,30.21,10.0,ESE,3.5,-,N/A,,Overcast,120,2013-09-27 20:15:00
4:35 PM,68.4,49.6,51,30.21,10.0,ENE,4.6,-,N/A,,Overcast,60,2013-09-27 20:35:00
4:55 PM,68.2,49.6,51,30.22,10.0,ENE,6.9,-,N/A,,Overcast,70,2013-09-27 20:55:00
5:15 PM,68.2,51.3,55,30.22,10.0,Calm,Calm,-,N/A,,Overcast,0,2013-09-27 21:15:00
5:35 PM,67.1,55.0,65,30.22,10.0,Calm,Calm,-,N/A,,Overcast,0,2013-09-27 21:35:00
5:55 PM,66.2,54.7,66,30.23,10.0,SE,3.5,-,N/A,,Overcast,130,2013-09-27 21:55:00
6:15 PM,66.0,54.7,67,30.23,10.0,Calm,Calm,-,N/A,,Overcast,0,2013-09-27 22:15:00
6:35 PM,67.1,50.9,56,30.24,10.0,Calm,Calm,-,N/A,,Overcast,0,2013-09-27 22:35:00
6:55 PM,67.1,50.4,55,30.23,10.0,ENE,5.8,-,N/A,,Overcast,60,2013-09-27 22:55:00
7:15 PM,67.1,50.4,55,30.24,10.0,East,4.6,-,N/A,,Overcast,80,2013-09-27 23:15:00
7:35 PM,66.9,52.0,59,30.24,10.0,Calm,Calm,-,N/A,,Overcast,0,2013-09-27 23:35:00
7:55 PM,65.3,54.1,67,30.24,10.0,Calm,Calm,-,N/A,,Overcast,0,2013-09-27 23:55:00
8:15 PM,65.5,53.6,65,30.25,10.0,Calm,Calm,-,N/A,,Overcast,0,2013-09-28 00:15:00
8:35 PM,66.2,51.8,60,30.25,10.0,ESE,6.9,-,N/A,,Overcast,110,2013-09-28 00:35:00
8:55 PM,66.2,52.0,60,30.25,10.0,ESE,8.1,-,N/A,,Overcast,120,2013-09-28 00:55:00
9:15 PM,65.8,52.2,61,30.25,10.0,East,5.8,-,N/A,,Overcast,90,2013-09-28 01:15:00
9:35 PM,65.8,51.4,60,30.26,10.0,ENE,5.8,-,N/A,,Overcast,70,2013-09-28 01:35:00
9:55 PM,65.7,50.5,58,30.27,10.0,East,3.5,-,N/A,,Overcast,80,2013-09-28 01:55:00
10:15 PM,65.8,50.0,57,30.27,10.0,East,3.5,-,N/A,,Overcast,90,2013-09-28 02:15:00
10:35 PM,65.7,50.2,57,30.28,10.0,East,5.8,-,N/A,,Overcast,90,2013-09-28 02:35:00
10:55 PM,65.7,50.4,58,30.28,10.0,East,6.9,-,N/A,,Overcast,90,2013-09-28 02:55:00
11:15 PM,65.7,50.4,58,30.29,10.0,ENE,3.5,-,N/A,,Overcast,70,2013-09-28 03:15:00
11:35 PM,65.3,50.7,59,30.29,10.0,East,4.6,-,N/A,,Overcast,80,2013-09-28 03:35:00
11:55 PM,65.3,50.9,60,30.29,10.0,East,5.8,-,N/A,,Overcast,90,2013-09-28 03:55:00